Date,TemperatureHighF,TemperatureAvgF,TemperatureLowF,DewpointHighF,DewpointAvgF,DewpointLowF,HumidityHigh,HumidityAvg,HumidityLow,PressureMaxIn,PressureMinIn,WindSpeedMaxMPH,WindSpeedAvgMPH,GustSpeedMaxMPH,PrecipitationSumIn
2013-1-1,78.3,61.6,47.3,60.3,52.9,44.9,95,76,48,30.16,29.99,0,0,0,0.00
2013-1-2,80.7,64.9,50.7,67.2,57.6,47.6,94,79,53,30.02,29.93,0,0,0,0.01
2013-1-3,74.4,65.6,57.3,66.8,61.5,54.7,95,87,70,30.13,29.98,0,0,0,0.09
2013-1-4,59.8,57.2,54.2,57.2,54.9,52.2,94,92,90,30.23,30.10,0,0,0,0.12
2013-1-5,76.0,63.7,52.9,60.2,56.1,50.3,93,78,56,30.26,30.13,0,0,0,0.00
2013-1-6,79.4,68.5,61.3,67.3,62.4,56.3,95,82,62,30.16,30.01,0,0,0,0.00
2013-1-7,66.9,61.9,56.5,63.9,56.9,49.9,92,84,67,30.18,30.07,0,0,0,0.05
2013-1-8,82.2,69.7,60.1,67.7,62.9,57.9,94,80,54,30.18,30.08,0,0,0,0.01
2013-1-9,84.0,74.6,68.3,69.4,66.4,63.0,93,77,51,30.25,30.13,0,0,0,0.00
2013-1-10,82.6,73.9,67.4,68.5,64.5,60.1,92,74,49,30.25,30.16,0,0,0,0.00
2013-1-11,82.4,70.5,62.7,68.0,63.3,57.2,93,79,54,30.22,30.10,0,0,0,0.00
2013-1-12,81.4,70.5,59.2,66.4,61.7,56.3,93,76,52,30.14,30.04,0,0,0,0.00
2013-1-13,80.7,71.6,62.7,66.7,62.9,59.1,91,75,52,30.11,30.02,0,0,0,0.00
2013-1-14,82.0,70.4,57.6,65.9,59.7,54.7,93,71,46,30.14,30.05,0,0,0,0.00
2013-1-15,81.8,68.3,55.1,67.2,59.7,51.9,94,76,50,30.10,30.00,0,0,0,0.00
2013-1-16,82.2,69.2,57.2,64.9,58.7,52.5,92,72,42,30.06,29.95,0,0,0,0.00
2013-1-17,75.3,60.6,52.6,68.4,55.3,43.1,94,83,68,30.08,29.96,0,0,0,0.02
2013-1-18,62.6,51.6,37.5,56.9,43.9,31.7,91,75,63,30.25,30.09,0,0,0,0.00
2013-1-19,76.1,63.0,52.6,59.0,54.0,46.4,85,73,56,30.23,30.08,0,0,0,0.00
2013-1-20,75.1,64.7,58.4,61.9,57.8,54.5,92,79,60,30.13,29.99,0,0,0,0.00
2013-1-21,73.2,63.9,57.6,63.7,56.4,51.8,90,77,61,30.06,29.95,0,0,0,0.05
2013-1-22,65.5,54.9,42.2,51.7,40.4,30.8,83,62,28,30.23,30.02,0,0,0,0.00
2013-1-23,69.9,52.1,39.5,38.2,34.6,29.5,88,58,23,30.32,30.22,0,0,0,0.00
2013-1-24,73.5,53.5,36.0,49.9,41.5,32.2,92,67,36,30.29,30.18,0,0,0,0.00
2013-1-25,75.6,56.5,42.1,55.8,44.0,38.7,95,67,33,30.27,30.13,0,0,0,0.00
2013-1-26,76.3,57.2,40.9,56.0,47.3,38.2,93,72,42,30.23,30.11,0,0,0,0.01
2013-1-27,78.6,61.3,44.9,62.0,50.6,42.1,95,72,39,30.27,30.17,0,0,0,0.00
2013-1-28,78.5,67.1,55.7,64.6,59.7,51.6,94,78,59,30.28,30.17,0,0,0,0.00
2013-1-29,82.4,72.1,63.9,68.1,64.3,61.2,95,78,51,30.20,30.04,0,0,0,0.00
2013-1-30,84.5,72.6,64.8,65.2,63.2,59.9,91,74,47,30.06,29.87,0,0,0,0.00
2013-1-31,69.1,56.4,39.1,65.1,41.2,25.9,92,62,25,30.20,29.86,0,0,0,0.11
2013-2-1,69.1,49.8,31.2,38.1,29.6,19.2,88,53,16,30.32,30.18,0,0,0,0.00
2013-2-2,72.1,52.6,33.7,43.8,37.4,29.7,91,61,28,30.26,30.10,0,0,0,0.00
2013-2-3,72.7,52.2,34.3,51.8,40.0,30.5,92,66,38,30.15,30.03,0,0,0,0.00
2013-2-4,70.6,50.2,34.1,49.1,35.1,30.3,93,63,24,30.10,29.99,0,0,0,0.00
2013-2-5,77.2,55.2,34.1,51.7,41.9,30.5,93,65,35,30.05,29.95,0,0,0,0.00
2013-2-6,78.1,65.9,51.0,61.1,54.7,47.1,92,70,45,30.06,29.98,0,0,0,0.00
2013-2-7,81.6,70.3,57.6,64.5,60.1,53.3,90,72,45,30.02,29.80,0,0,0,0.00
2013-2-8,80.9,68.0,54.2,63.7,57.5,50.6,90,72,38,30.04,29.84,0,0,0,0.00
2013-2-9,76.5,62.0,49.2,55.3,50.8,45.8,93,70,37,30.15,30.02,0,0,0,0.01
2013-2-10,78.8,66.7,56.5,61.3,56.1,51.4,89,70,49,30.21,30.10,0,0,0,0.00
2013-2-11,82.2,69.4,57.2,62.5,58.8,53.4,91,71,46,30.16,30.02,0,0,0,0.00
2013-2-12,84.0,70.6,58.1,67.7,62.0,-99.9,94,77,45,30.05,29.89,0,-3,0,0.00
2013-2-13,84.7,72.4,60.5,70.1,65.3,56.8,93,80,54,29.94,29.79,0,0,0,0.54
2013-2-14,63.1,60.8,58.9,60.4,58.1,56.6,93,91,89,29.99,29.87,0,0,0,0.39
2013-2-15,69.1,57.2,50.7,58.5,52.2,45.8,94,84,57,30.03,29.90,0,0,0,0.04
2013-2-16,68.3,54.1,44.8,51.2,42.2,24.6,93,67,35,30.10,29.89,0,0,0,0.00
2013-2-17,56.2,42.9,30.7,26.5,18.9,9.4,80,42,16,30.30,30.08,0,0,0,0.00
2013-2-18,68.4,50.1,28.7,47.1,35.1,22.1,88,60,32,30.31,30.15,0,0,0,0.00
2013-2-19,79.0,60.7,43.1,55.7,48.3,38.3,92,66,38,30.17,30.02,0,0,0,0.00
2013-2-20,78.3,64.2,51.9,60.7,55.0,47.9,92,74,52,30.08,29.95,0,0,0,0.00
2013-2-21,82.4,68.3,56.3,63.7,57.6,51.8,89,71,45,30.06,29.93,0,0,0,0.00
2013-2-22,85.7,71.4,57.8,67.4,60.8,54.6,93,72,39,30.02,29.92,0,0,0,0.00
2013-2-23,86.1,74.4,64.0,69.0,65.9,59.4,92,77,49,29.96,29.83,0,0,0,0.00
2013-2-24,78.6,71.6,67.4,70.6,67.1,63.1,93,86,71,29.91,29.82,0,0,0,0.00
2013-2-25,87.0,73.5,65.6,69.5,64.2,61.0,94,75,43,29.87,29.71,0,0,0,0.00
2013-2-26,75.4,70.1,58.7,70.3,64.9,55.5,91,84,71,29.83,29.67,0,0,0,0.12
2013-2-27,76.8,62.9,51.6,60.1,53.3,46.0,94,73,41,29.93,29.82,0,0,0,0.00
2013-2-28,75.4,58.5,44.1,55.3,46.4,40.4,92,67,35,29.95,29.85,0,0,0,0.00
2013-3-1,65.0,52.5,41.5,43.3,39.2,34.1,91,63,34,29.97,29.87,0,0,0,0.00
2013-3-2,60.9,49.3,38.8,40.1,34.0,29.9,80,57,36,30.01,29.92,0,0,0,0.00
2013-3-3,54.5,43.3,32.8,34.8,30.7,26.1,82,62,42,30.12,29.95,0,0,0,0.00
2013-3-4,67.8,46.9,27.5,36.1,27.8,21.8,91,55,20,30.19,30.06,0,0,0,0.00
2013-3-5,75.6,56.9,35.6,55.7,42.9,29.8,91,64,24,30.12,29.97,0,0,0,0.00
2013-3-6,66.1,55.6,38.0,60.7,41.4,27.2,92,63,26,30.09,29.90,0,0,0,0.05
2013-3-7,69.1,49.5,32.2,38.2,33.0,27.0,85,58,26,30.17,30.07,0,0,0,0.00
2013-3-8,77.7,54.9,33.2,44.6,34.6,27.1,91,55,16,30.17,30.05,0,0,0,0.00
2013-3-9,76.0,59.6,39.1,50.0,44.1,35.6,92,61,30,30.17,30.08,0,0,0,0.00
2013-3-10,79.6,65.9,51.3,54.9,51.6,46.9,90,63,37,30.13,30.00,0,0,0,0.00
2013-3-11,79.2,67.0,57.0,58.6,55.7,52.8,89,69,46,30.05,29.85,0,0,0,0.00
2013-3-12,68.8,64.3,52.2,66.0,58.9,47.8,93,83,72,29.99,29.81,0,0,0,0.30
2013-3-13,75.8,58.6,43.8,48.7,39.3,29.0,90,57,19,30.13,29.98,0,0,0,0.01
2013-3-14,69.8,52.9,40.6,41.0,31.3,23.4,86,50,18,30.22,30.10,0,0,0,0.00
2013-3-15,73.9,53.1,31.6,45.3,33.3,27.0,90,54,23,30.24,30.09,0,0,0,0.00
2013-3-16,79.2,57.6,35.9,49.1,40.1,32.1,92,58,22,30.15,30.00,0,0,0,0.00
2013-3-17,77.7,61.1,42.5,56.9,49.5,38.6,94,68,42,30.09,29.94,0,0,0,0.00
2013-3-18,77.2,68.1,58.4,64.7,60.3,54.2,89,77,61,30.00,29.84,0,0,0,0.00
2013-3-19,86.3,71.6,59.8,65.4,60.2,56.6,93,70,41,29.95,29.83,0,0,0,0.00
2013-3-20,75.6,66.7,58.4,65.7,59.5,54.5,91,79,57,29.92,29.75,0,0,0,0.04
2013-3-21,72.3,57.3,38.9,55.8,38.0,21.4,92,57,17,29.93,29.82,0,0,0,0.01
2013-3-22,79.9,58.1,36.5,64.3,46.8,28.9,92,70,29,29.96,29.84,0,0,0,1.00
2013-3-23,85.5,72.9,63.2,72.0,65.7,61.0,94,80,56,29.93,29.73,0,0,0,0.01
2013-3-24,81.1,74.8,68.1,71.8,69.0,64.1,90,82,68,29.79,29.59,0,0,0,0.00
2013-3-25,70.8,61.6,45.2,65.3,43.4,24.2,90,57,21,30.00,29.68,0,0,0,0.00
2013-3-26,59.2,49.7,35.9,42.4,30.6,23.9,81,50,28,30.20,30.00,0,0,0,0.00
2013-3-27,63.7,47.5,34.7,33.9,30.0,25.1,82,55,24,30.27,30.16,0,0,0,0.00
2013-3-28,73.0,51.9,30.3,41.9,30.0,23.6,92,52,17,30.25,30.12,0,0,0,0.00
2013-3-29,75.8,56.2,36.2,49.2,34.6,28.7,92,52,18,30.27,30.14,0,0,0,0.00
2013-3-30,79.8,60.2,40.5,54.0,44.0,36.5,92,59,30,30.21,30.07,0,0,0,0.00
2013-3-31,82.8,65.8,49.6,57.8,51.4,43.5,91,64,31,30.12,29.95,0,0,0,0.00
2013-4-1,84.5,70.9,60.9,65.4,59.9,55.0,91,70,47,29.98,29.90,0,0,0,0.00
2013-4-2,85.5,70.7,54.7,63.3,55.5,46.8,93,63,28,30.04,29.94,0,0,0,0.00
2013-4-3,85.3,71.2,61.0,66.8,61.8,54.2,91,74,43,30.03,29.89,0,0,0,0.51
2013-4-4,72.5,68.4,65.8,67.5,64.6,60.3,93,88,73,29.99,29.81,0,0,0,0.46
2013-4-5,76.1,66.9,59.8,67.4,59.6,53.8,92,79,49,29.94,29.77,0,0,0,0.11
2013-4-6,78.5,65.7,53.3,56.9,53.5,49.4,88,67,40,30.07,29.93,0,0,0,0.00
2013-4-7,82.6,69.7,56.2,61.6,55.5,47.7,91,65,31,30.10,30.00,0,0,0,0.00
2013-4-8,84.7,72.5,57.6,62.9,56.1,46.9,90,60,28,30.08,29.99,0,0,0,0.00
2013-4-9,83.6,71.6,57.2,66.6,59.7,52.7,90,68,46,30.11,30.02,0,0,0,0.00
2013-4-10,88.0,73.0,56.2,68.1,60.0,51.6,91,67,38,30.07,29.90,0,0,0,0.00
2013-4-11,88.6,77.6,72.0,71.3,68.7,65.5,89,76,48,29.94,29.77,0,0,0,0.36
2013-4-12,81.2,76.2,71.6,72.7,70.0,66.8,90,82,67,29.85,29.74,0,0,0,0.00
2013-4-13,86.3,75.4,66.4,69.5,65.4,60.1,92,73,51,29.93,29.82,0,0,0,0.00
2013-4-14,88.4,75.2,65.6,73.6,66.3,59.4,86,74,56,29.96,29.78,0,0,0,0.05
2013-4-15,90.7,75.8,63.5,70.0,64.0,59.2,92,70,40,30.02,29.88,0,0,0,0.00
2013-4-16,89.9,78.0,67.3,71.7,66.6,63.7,90,70,45,30.09,29.98,0,0,0,0.00
2013-4-17,87.4,74.2,61.2,68.4,62.4,57.0,92,69,40,30.09,29.97,0,0,0,0.00
2013-4-18,88.0,75.0,62.0,69.9,64.1,57.7,92,71,43,30.00,29.88,0,0,0,0.69
2013-4-19,88.4,78.5,69.1,74.6,68.5,61.9,93,73,49,29.97,29.86,0,0,0,0.02
2013-4-20,73.9,67.6,59.8,68.6,61.7,55.6,90,82,66,30.11,29.90,0,0,0,0.00
2013-4-21,80.1,68.3,59.6,69.4,62.7,55.3,92,83,68,30.10,29.97,0,0,0,0.17
2013-4-22,80.3,70.3,65.0,67.9,64.7,60.9,93,83,61,30.04,29.93,0,0,0,0.07
2013-4-23,84.1,72.5,64.0,65.1,60.4,55.1,90,68,43,30.05,29.97,0,0,0,0.00
2013-4-24,86.7,71.5,53.9,63.8,57.1,49.7,92,64,32,30.09,30.01,0,0,0,0.00
2013-4-25,88.0,74.2,58.3,67.1,60.4,54.1,92,65,36,30.16,30.05,0,0,0,0.00
2013-4-26,88.0,74.6,59.0,66.0,60.2,54.8,91,64,38,30.19,30.09,0,0,0,0.00
2013-4-27,85.1,73.7,62.0,67.1,62.4,57.8,91,69,43,30.18,30.04,0,0,0,0.00
2013-4-28,87.4,74.4,61.0,65.6,59.7,53.4,92,63,34,30.08,29.91,0,0,0,0.00
2013-4-29,86.1,75.6,65.5,66.1,62.9,60.0,87,66,43,29.97,29.84,0,0,0,0.00
2013-4-30,89.3,74.6,67.4,68.8,65.5,60.5,91,76,42,29.96,29.84,0,0,0,0.72
2013-5-1,75.6,70.5,67.6,71.5,67.4,64.4,93,90,79,29.96,29.88,0,0,0,0.29
2013-5-2,77.4,69.5,64.3,69.8,66.0,61.9,93,89,76,29.92,29.77,0,0,0,0.97
2013-5-3,83.6,71.8,64.5,70.6,65.9,62.4,94,83,54,29.79,29.66,0,0,0,0.00
2013-5-4,82.6,72.8,65.8,68.2,65.2,61.2,92,78,54,29.74,29.62,0,0,0,0.00
2013-5-5,77.6,67.7,55.3,64.2,52.4,42.6,90,62,31,29.89,29.72,0,0,0,0.00
2013-5-6,77.4,65.2,52.6,61.5,53.5,46.3,92,68,42,29.96,29.84,0,0,0,0.00
2013-5-7,78.8,64.3,48.5,60.4,52.8,44.8,93,69,45,30.01,29.92,0,0,0,0.00
2013-5-8,81.6,67.5,52.2,63.1,55.2,48.9,92,67,44,30.08,29.98,0,0,0,0.00
2013-5-9,85.9,70.1,53.1,66.0,56.4,49.1,93,65,36,30.10,30.01,0,0,0,0.00
2013-5-10,90.5,75.2,58.7,72.1,62.2,54.3,93,67,35,30.09,29.93,0,0,0,0.00
2013-5-11,88.8,76.0,63.7,72.7,65.9,59.6,92,73,49,30.00,29.92,0,0,0,0.00
2013-5-12,88.2,75.0,65.0,73.4,65.3,60.0,93,74,51,29.99,29.88,0,0,0,0.00
2013-5-13,84.5,70.9,56.3,65.2,55.4,42.2,92,63,27,30.08,29.96,0,0,0,0.00
2013-5-14,84.1,67.7,46.0,57.0,47.6,38.9,91,55,21,30.16,30.06,0,0,0,0.00
2013-5-15,85.7,71.7,52.8,63.3,54.9,48.3,91,59,32,30.16,30.02,0,0,0,0.00
2013-5-16,86.5,75.0,62.1,64.5,58.9,48.3,88,60,29,30.08,29.95,0,0,0,0.00
2013-5-17,89.0,76.9,61.2,66.7,60.3,53.0,89,60,30,30.04,29.97,0,0,0,0.00
2013-5-18,92.7,80.0,66.4,71.3,65.1,56.1,90,64,31,30.05,29.94,0,0,0,0.38
2013-5-19,92.1,78.8,68.9,71.5,67.4,57.9,91,71,33,30.03,29.91,0,0,0,0.01
2013-5-20,91.4,76.9,68.6,72.9,67.4,63.4,89,74,41,30.02,29.91,0,0,0,0.12
2013-5-21,84.1,72.7,64.3,72.1,66.8,61.6,92,82,60,29.98,29.90,0,0,0,0.38
2013-5-22,88.2,74.2,64.8,72.5,67.8,62.1,93,82,52,29.92,29.82,0,0,0,0.29
2013-5-23,91.2,77.1,65.3,74.0,67.3,62.3,93,74,44,29.95,29.86,0,0,0,0.00
2013-5-24,93.6,78.4,64.0,75.2,63.5,50.6,92,65,24,30.02,29.92,0,0,0,0.00
2013-5-25,89.0,77.3,66.6,69.2,62.0,57.9,89,62,36,30.13,30.01,0,0,0,0.00
2013-5-26,85.9,73.0,55.6,62.9,56.8,48.5,90,60,28,30.16,30.06,0,0,0,0.00
2013-5-27,88.0,73.8,58.7,65.4,59.8,54.3,91,65,38,30.13,30.02,0,0,0,0.00
2013-5-28,89.9,76.2,65.5,71.4,67.5,61.5,91,76,50,30.09,29.99,0,0,0,0.03
2013-5-29,83.4,76.3,70.6,73.3,69.7,67.4,91,80,64,30.08,29.99,0,0,0,0.03
2013-5-30,86.3,77.7,71.8,74.5,69.5,66.0,92,77,57,30.04,29.97,0,0,0,0.05
2013-5-31,88.0,78.8,71.1,71.9,68.4,66.6,87,72,56,30.04,29.95,0,0,0,0.00
2013-6-1,91.2,78.5,72.1,74.3,70.9,68.3,91,79,53,30.01,29.88,0,0,0,0.29
2013-6-2,92.1,79.3,71.8,75.6,71.8,69.2,92,79,50,29.96,29.82,0,0,0,0.14
2013-6-3,86.5,77.7,70.4,78.5,71.5,67.0,92,82,63,29.95,29.85,0,0,0,0.18
2013-6-4,85.5,76.6,72.3,73.7,70.8,68.7,91,83,62,29.97,29.89,0,0,0,0.31
2013-6-5,82.0,75.7,72.5,75.1,71.8,69.7,93,88,69,29.96,29.85,0,0,0,0.08
2013-6-6,78.5,75.0,72.3,75.5,71.8,69.7,94,90,79,29.85,29.60,0,0,0,2.48
2013-6-7,87.2,78.7,70.8,75.1,70.5,66.8,93,77,56,29.91,29.73,0,0,0,0.00
2013-6-8,88.0,75.7,70.6,75.4,70.8,67.0,93,86,61,30.05,29.90,0,0,0,1.39
2013-6-9,90.1,78.3,70.4,76.6,72.2,68.3,94,83,56,30.05,29.95,0,0,0,0.04
2013-6-10,90.3,79.7,70.6,75.4,71.7,67.8,93,78,51,30.03,29.93,0,0,0,0.11
2013-6-11,89.9,77.7,70.8,77.3,71.3,66.7,93,81,59,30.04,29.94,0,0,0,0.26
2013-6-12,93.8,80.1,68.1,75.7,70.0,65.0,93,73,44,30.03,29.95,0,0,0,0.00
2013-6-13,92.7,80.8,69.9,76.7,70.3,66.4,92,72,47,29.99,29.84,0,0,0,0.00
2013-6-14,89.0,79.9,70.4,75.4,70.1,66.2,93,73,51,29.90,29.80,0,0,0,0.00
2013-6-15,89.9,78.5,72.0,78.1,72.6,68.0,92,83,60,30.00,29.86,0,0,0,0.55
2013-6-16,92.3,82.1,75.1,76.3,73.1,69.5,91,76,49,30.03,29.93,0,0,0,0.00
2013-6-17,93.8,82.4,73.7,76.6,72.3,69.7,92,74,48,30.02,29.91,0,0,0,0.00
2013-6-18,93.4,81.8,71.8,76.0,71.5,66.9,91,73,43,30.02,29.90,0,0,0,0.00
2013-6-19,89.9,80.4,72.5,76.6,72.2,68.3,92,77,56,29.99,29.91,0,0,0,0.00
2013-6-20,91.6,78.5,70.3,76.2,69.6,65.5,92,76,46,30.04,29.95,0,0,0,0.01
2013-6-21,88.4,75.2,67.3,74.8,69.2,64.3,93,83,57,30.06,29.98,0,0,0,1.01
2013-6-22,90.1,78.0,70.4,75.3,70.4,66.8,92,79,50,30.07,29.97,0,0,0,0.07
2013-6-23,92.3,78.8,69.9,75.2,71.8,66.8,92,80,47,30.09,30.01,0,0,0,0.18
2013-6-24,91.8,82.1,73.5,75.5,71.4,65.4,92,72,43,30.13,30.00,0,0,0,0.01
2013-6-25,91.8,82.7,72.5,74.8,70.5,66.4,90,69,44,30.09,29.96,0,0,0,0.00
2013-6-26,91.6,79.4,71.3,75.5,71.5,68.7,92,78,53,30.04,29.94,0,0,0,2.20
2013-6-27,91.4,79.0,67.8,75.7,71.1,65.7,95,78,50,30.01,29.88,0,0,0,0.00
2013-6-28,91.0,79.5,72.3,76.7,72.2,68.1,91,79,56,29.93,29.80,0,0,0,0.04
2013-6-29,88.4,78.6,74.2,77.3,73.0,69.8,93,84,62,29.82,29.75,0,0,0,0.09
2013-6-30,87.8,77.2,73.7,77.0,72.5,70.3,92,86,64,29.82,29.76,0,0,0,0.77
2013-7-1,80.7,75.3,72.5,74.5,71.7,69.4,92,89,78,29.96,29.80,0,0,0,0.17
2013-7-2,86.5,76.6,72.5,76.8,72.0,69.7,94,86,65,30.03,29.91,0,0,0,0.19
2013-7-3,89.9,76.9,72.7,77.2,72.2,69.5,94,86,59,30.07,29.99,0,0,0,0.86
2013-7-4,86.1,76.3,70.6,76.8,71.5,66.4,94,86,67,30.10,30.01,0,0,0,2.11
2013-7-5,89.3,76.9,69.8,77.5,72.1,67.4,94,86,59,30.10,30.01,0,0,0,0.28
2013-7-6,91.4,81.5,74.0,75.5,72.2,67.1,93,75,46,30.06,29.97,0,0,0,0.01
2013-7-7,90.7,81.9,72.8,75.5,71.7,68.8,92,73,50,30.08,29.97,0,0,0,0.00
2013-7-8,92.1,82.6,73.3,76.1,71.2,66.8,91,70,48,30.10,30.01,0,0,0,0.00
2013-7-9,92.5,81.4,70.6,74.7,70.3,65.1,91,71,42,30.11,30.00,0,0,0,0.00
2013-7-10,91.2,79.6,69.9,74.4,69.6,65.5,92,73,44,30.03,29.90,0,0,0,0.03
2013-7-11,89.7,78.3,72.3,77.9,71.2,67.7,92,79,54,29.98,29.86,0,0,0,0.11
2013-7-12,85.3,76.4,70.9,76.1,71.8,67.5,93,86,67,29.90,29.84,0,0,0,0.99
2013-7-13,88.8,76.9,70.4,75.0,71.5,68.0,93,84,57,29.93,29.86,0,0,0,0.09
2013-7-14,88.4,76.8,72.1,76.4,71.8,69.3,92,85,61,30.02,29.91,0,0,0,0.33
2013-7-15,88.4,77.8,71.1,74.5,71.3,68.7,93,82,54,30.06,29.97,0,0,0,0.02
2013-7-16,89.9,76.7,72.7,74.8,71.4,69.4,92,85,55,30.10,30.03,0,0,0,0.12
2013-7-17,89.9,77.3,72.5,75.7,71.7,69.6,93,84,55,30.10,30.01,0,0,0,0.10
2013-7-18,87.6,77.4,70.1,74.6,70.8,66.7,92,81,59,30.07,29.98,0,0,0,0.13
2013-7-19,90.3,21.3,72.7,76.5,-55.7,-99.9,91,19,54,30.08,29.98,0,-382,0,0.00
2013-7-20,88.8,27.0,76.0,77.1,-43.9,-99.9,94,25,60,30.05,29.96,0,-372,0,0.00
2013-7-21,92.1,55.5,75.6,78.4,16.9,-99.9,93,52,54,30.07,29.97,0,-190,0,0.47
2013-7-22,93.2,81.1,73.9,78.4,73.1,68.7,93,78,47,30.07,30.00,0,0,0,0.00
2013-7-23,88.4,77.4,73.7,77.2,72.4,69.6,92,85,60,30.04,29.91,0,0,0,0.39
2013-7-24,87.4,79.6,73.3,79.8,74.1,71.2,93,84,67,29.95,29.83,0,0,0,0.48
2013-7-25,86.3,78.9,73.3,80.0,73.6,70.8,93,84,64,29.94,29.82,0,0,0,0.80
2013-7-26,92.5,80.7,72.8,77.5,73.4,70.0,93,80,53,29.96,29.89,0,0,0,0.01
2013-7-27,92.1,81.9,72.8,77.9,71.9,68.4,92,73,49,29.94,29.84,0,0,0,0.00
2013-7-28,88.6,77.9,71.1,76.7,72.1,68.0,92,83,57,30.02,29.88,0,0,0,0.03
2013-7-29,92.9,80.4,69.6,75.9,70.2,66.5,92,73,45,30.10,29.97,0,0,0,0.01
2013-7-30,93.2,81.5,71.5,77.3,71.4,68.1,92,73,45,30.11,30.01,0,0,0,0.00
2013-7-31,93.6,80.2,72.5,76.9,71.4,67.9,92,76,46,30.08,29.93,0,0,0,0.29
2013-8-1,92.3,80.3,71.5,77.4,71.6,67.3,93,77,46,30.01,29.89,0,0,0,0.01
2013-8-2,92.3,80.5,71.1,75.6,71.7,68.0,92,76,49,29.99,29.88,0,0,0,0.02
2013-8-3,91.8,79.1,72.3,77.5,72.4,68.9,92,81,52,30.04,29.95,0,0,0,0.24
2013-8-4,87.8,78.6,73.3,79.1,74.5,70.8,93,88,68,30.06,29.94,0,0,0,1.05
2013-8-5,92.3,82.1,72.8,79.2,74.2,70.0,93,78,57,29.97,29.86,0,0,0,0.05
2013-8-6,94.3,81.3,73.2,78.1,73.3,70.1,92,78,49,29.93,29.83,0,0,0,0.52
2013-8-7,93.4,81.8,75.6,77.9,73.8,70.3,93,78,48,29.92,29.84,0,0,0,0.02
2013-8-8,92.3,82.2,75.4,76.9,73.3,70.4,91,76,51,29.97,29.88,0,0,0,0.03
2013-8-9,90.3,79.1,73.5,77.7,73.1,68.3,91,83,55,30.01,29.91,0,0,0,0.79
2013-8-10,92.7,82.0,70.6,76.6,71.4,63.0,93,73,38,30.07,29.97,0,0,0,0.01
2013-8-11,93.8,83.8,72.3,75.9,72.2,66.4,91,70,44,30.09,30.00,0,0,0,0.00
2013-8-12,93.4,83.2,72.3,78.0,71.7,67.9,91,70,49,30.07,29.94,0,0,0,0.00
2013-8-13,94.0,83.7,73.2,75.6,72.2,67.7,90,70,44,30.00,29.86,0,0,0,0.00
2013-8-14,92.7,80.7,73.9,78.2,73.4,69.2,91,79,56,29.97,29.86,0,0,0,0.00
2013-8-15,92.7,81.3,71.1,76.6,72.3,68.0,92,75,51,29.98,29.87,0,0,0,0.00
2013-8-16,91.2,82.4,75.8,76.8,74.2,70.5,89,77,56,30.01,29.91,0,0,0,0.39
2013-8-17,93.4,80.5,74.2,78.6,73.5,69.7,92,80,55,30.02,29.92,0,0,0,0.21
2013-8-18,90.7,79.2,74.4,77.6,73.6,70.0,93,84,58,30.05,29.96,0,0,0,0.20
2013-8-19,92.3,80.2,72.3,77.9,72.8,69.8,93,79,50,30.02,29.90,0,0,0,0.02
2013-8-20,92.7,80.5,73.2,76.8,72.0,69.1,92,77,51,30.03,29.93,0,0,0,0.00
2013-8-21,92.5,78.9,71.8,77.0,72.7,66.0,92,83,52,30.05,29.96,0,0,0,1.09
2013-8-22,92.9,79.4,74.4,77.9,73.4,70.2,93,83,56,30.03,29.91,0,0,0,0.52
2013-8-23,92.7,80.4,73.2,78.2,73.4,68.2,94,81,51,29.96,29.88,0,0,0,1.08
2013-8-24,91.8,79.2,72.0,77.5,72.5,69.6,94,81,54,30.05,29.94,0,0,0,0.01
2013-8-25,87.6,79.2,72.8,75.4,72.3,69.9,93,80,61,30.10,30.01,0,0,0,0.00
2013-8-26,89.5,78.4,72.7,76.7,72.4,69.9,92,83,58,30.08,29.96,0,0,1,3.88
2013-8-27,89.9,80.4,70.9,75.3,69.9,66.2,93,73,47,30.01,29.92,0,0,3,0.01
2013-8-28,91.4,79.4,68.4,72.0,67.5,62.9,92,69,40,30.00,29.91,0,0,0,0.00
2013-8-29,92.5,79.9,69.1,73.1,69.3,64.9,93,72,43,29.98,29.87,0,0,0,0.00
2013-8-30,91.0,80.2,71.6,78.6,72.4,68.2,91,78,53,29.93,29.84,0,0,0,0.08
2013-8-31,90.7,79.6,73.2,77.2,72.7,67.1,92,80,55,29.93,29.83,0,0,0,0.52
2013-9-1,92.1,79.5,69.8,76.2,70.5,66.7,92,76,47,29.94,29.83,0,0,0,0.01
2013-9-2,91.6,79.5,69.9,76.2,70.9,66.8,92,76,48,29.96,29.87,0,0,0,0.00
2013-9-3,92.7,80.5,71.1,77.1,72.0,65.0,93,77,44,29.97,29.86,0,0,0,0.00
2013-9-4,92.5,78.1,71.6,77.6,71.3,67.3,92,81,54,30.03,29.91,0,0,0,0.58
2013-9-5,92.7,79.9,71.6,77.3,70.8,65.2,93,76,48,30.04,29.94,0,0,0,0.00
2013-9-6,93.2,77.1,70.6,76.7,70.2,67.2,92,81,50,30.00,29.87,0,0,0,0.76
2013-9-7,89.5,77.0,69.3,75.5,70.2,67.2,94,81,53,29.97,29.86,0,0,0,0.01
2013-9-8,91.4,79.7,68.4,74.5,69.0,64.1,92,72,42,29.92,29.80,0,0,0,0.00
2013-9-9,91.6,80.4,70.4,74.3,69.0,61.2,92,71,38,29.98,29.88,0,0,0,0.00
2013-9-10,90.3,80.9,72.7,73.5,69.3,61.5,91,70,41,30.03,29.94,0,0,0,0.00
2013-9-11,91.4,81.3,72.8,74.2,68.7,63.6,92,69,43,30.02,29.92,0,0,0,0.00
2013-9-12,89.3,78.0,70.6,75.2,70.9,67.0,92,80,56,29.97,29.84,0,0,0,1.09
2013-9-13,91.0,79.1,70.1,74.7,70.6,67.7,93,77,51,29.85,29.74,0,0,0,0.01
2013-9-14,91.8,80.3,70.3,75.8,71.1,67.3,93,75,49,29.93,29.78,0,0,0,0.05
2013-9-15,91.6,77.5,72.7,76.5,71.6,68.4,92,83,55,30.02,29.91,0,0,0,0.03
2013-9-16,91.6,79.0,70.1,74.9,70.8,67.7,93,78,50,30.02,29.92,0,0,0,0.00
2013-9-17,90.7,77.1,69.9,74.4,70.4,66.8,92,81,52,30.00,29.90,0,0,0,0.40
2013-9-18,87.0,78.4,72.3,76.3,71.5,68.5,92,80,63,29.98,29.90,0,0,0,0.29
2013-9-19,90.1,79.6,72.3,74.7,70.7,67.0,92,76,50,29.99,29.90,0,0,0,0.01
2013-9-20,88.6,78.4,68.3,70.4,67.1,63.9,92,70,46,29.97,29.84,0,0,0,0.00
2013-9-21,89.5,77.0,66.9,72.3,67.3,63.2,92,74,43,29.89,29.71,0,0,0,0.00
2013-9-22,88.6,77.8,72.0,77.8,72.5,67.0,92,84,60,29.80,29.71,0,0,0,0.96
2013-9-23,84.5,76.2,73.0,77.0,72.9,70.5,94,90,74,29.90,29.77,0,0,0,1.43
2013-9-24,83.6,76.4,73.5,76.2,72.4,-99.9,95,89,73,29.91,29.79,0,0,0,0.22
2013-9-25,80.3,74.7,71.1,73.5,71.0,69.0,94,88,76,29.83,29.73,0,0,0,0.35
2013-9-26,88.6,79.5,73.2,78.6,71.1,60.3,94,78,39,29.82,29.73,0,0,0,0.31
2013-9-27,83.4,75.3,68.6,72.3,68.5,64.9,93,80,61,29.91,29.80,0,0,0,0.00
2013-9-28,85.9,75.1,70.1,73.9,70.1,67.0,93,85,63,29.94,29.86,0,0,0,0.18
2013-9-29,87.4,76.9,68.1,71.8,67.1,63.6,92,74,48,29.94,29.84,0,0,0,0.00
2013-9-30,88.8,77.4,68.3,72.3,67.7,62.8,92,74,46,29.95,29.85,0,0,0,0.00
2013-10-1,89.7,79.1,70.1,73.4,68.9,64.7,92,73,46,30.00,29.90,0,0,0,0.00
2013-10-2,88.8,77.6,69.1,72.0,68.3,65.7,91,74,52,30.00,29.92,0,0,0,0.00
2013-10-3,88.6,78.9,68.6,70.8,67.8,64.4,91,71,46,30.02,29.92,0,0,0,0.00
2013-10-4,89.7,78.5,69.3,74.1,69.2,63.7,91,75,44,30.03,29.93,0,0,0,0.00
2013-10-5,90.1,78.3,67.3,72.4,68.4,63.9,92,73,49,30.00,29.89,0,0,0,0.00
2013-10-6,89.5,78.3,69.1,74.3,69.3,65.0,92,75,51,29.93,29.80,0,0,0,0.00
2013-10-7,86.1,76.1,70.8,75.9,71.5,67.3,92,86,62,29.82,29.68,0,0,0,0.62
2013-10-8,88.2,77.0,70.8,78.4,72.3,68.7,95,86,60,29.90,29.73,0,0,0,0.22
2013-10-9,79.8,72.8,66.4,69.9,66.8,62.9,90,82,66,29.99,29.88,0,0,0,0.00
2013-10-10,85.5,73.7,62.7,69.0,64.0,60.0,93,74,48,30.00,29.91,0,0,0,0.01
2013-10-11,85.7,73.8,59.9,68.7,62.5,57.0,93,70,46,29.99,29.89,0,0,0,0.00
2013-10-12,85.3,71.3,58.9,66.4,60.3,56.3,93,71,41,29.99,29.91,0,0,0,0.01
2013-10-13,85.5,70.8,59.2,68.1,59.6,54.4,94,71,36,30.03,29.93,0,0,0,0.00
2013-10-14,85.3,72.6,60.2,69.0,62.4,56.5,93,72,43,29.99,29.88,0,0,0,0.00
2013-10-15,79.0,70.5,64.0,70.0,66.1,61.0,93,86,71,29.95,29.85,0,0,0,0.00
2013-10-16,85.7,75.3,67.6,70.2,66.9,62.9,92,77,50,29.92,29.83,0,0,0,0.01
2013-10-17,87.2,74.8,64.2,72.0,66.3,61.5,93,77,46,29.93,29.83,0,0,0,0.00
2013-10-18,89.3,77.1,66.9,73.2,67.9,64.2,93,75,47,29.93,29.83,0,0,0,0.00
2013-10-19,89.7,78.4,68.8,72.5,69.5,65.1,92,75,53,29.90,29.81,0,0,0,0.82
2013-10-20,87.8,78.3,71.3,75.1,71.4,68.2,93,80,59,29.91,29.81,0,0,0,0.01
2013-10-21,88.8,77.2,69.4,75.2,69.6,66.0,92,79,56,29.94,29.85,0,0,0,0.00
2013-10-22,88.4,77.0,69.3,74.9,70.0,66.2,93,80,59,29.89,29.77,0,0,0,0.16
2013-10-23,81.1,71.8,62.0,70.3,62.6,49.5,93,75,38,29.96,29.76,0,0,0,0.10
2013-10-24,69.3,62.4,55.7,57.1,52.7,47.5,86,71,59,30.12,29.96,0,0,0,0.00
2013-10-25,79.8,64.6,52.8,58.9,52.7,48.2,93,70,36,30.19,30.09,0,0,0,0.00
2013-10-26,78.5,63.7,52.5,58.5,53.1,48.9,92,72,37,30.16,30.04,0,0,0,0.01
2013-10-27,79.2,63.4,49.6,59.4,52.4,45.9,93,71,34,30.09,30.01,0,0,0,0.01
2013-10-28,82.8,65.8,51.3,62.3,55.6,48.2,94,73,42,30.14,30.04,0,0,0,0.00
2013-10-29,85.1,71.2,60.7,66.4,61.2,56.4,93,73,43,30.17,30.07,0,0,0,0.01
2013-10-30,84.5,71.9,62.7,68.5,63.0,59.7,92,75,47,30.17,30.04,0,0,0,0.01
2013-10-31,86.7,72.1,59.8,67.9,62.2,56.9,93,73,42,30.08,29.92,0,0,0,0.00
2013-11-1,87.6,75.8,64.8,70.2,65.7,60.8,91,73,44,29.96,29.82,0,0,0,0.00
2013-11-2,74.7,69.7,61.8,72.5,66.5,58.5,93,90,85,29.93,29.76,0,0,0,0.89
2013-11-3,75.8,63.2,53.3,58.5,50.6,38.5,93,68,28,30.06,29.91,0,0,0,0.02
2013-11-4,79.0,67.6,55.3,62.9,57.3,49.6,85,71,46,30.11,30.04,0,0,0,0.00
2013-11-5,81.8,71.9,63.4,67.5,64.2,59.7,92,78,56,30.09,30.00,0,0,0,0.00
2013-11-6,84.7,73.3,65.0,67.6,64.2,60.6,91,75,50,30.06,29.96,0,0,0,0.00
2013-11-7,80.3,70.3,63.1,69.2,64.3,59.0,94,82,63,30.01,29.91,0,0,0,0.01
2013-11-8,77.9,68.1,61.6,63.2,60.0,55.1,92,77,55,30.07,29.94,0,0,0,0.00
2013-11-9,81.6,69.4,59.5,65.2,60.5,56.3,91,75,54,30.11,30.04,0,0,0,0.00
2013-11-10,83.4,70.5,60.9,67.3,61.6,56.4,91,75,48,30.11,30.02,0,0,0,0.00
2013-11-11,82.4,70.5,62.4,67.4,62.6,58.8,93,78,52,30.11,30.01,0,0,0,0.01
2013-11-12,78.1,69.2,60.7,67.7,62.9,56.7,93,81,63,30.06,29.94,0,0,0,0.00
2013-11-13,66.4,59.5,51.7,56.7,49.0,45.3,81,68,56,30.26,30.03,0,0,0,0.00
2013-11-14,76.8,61.2,47.7,55.8,50.9,44.8,91,71,43,30.25,30.13,0,0,0,0.00
2013-11-15,74.9,65.7,55.0,65.1,60.0,50.3,92,82,63,30.13,30.02,0,0,0,0.01
2013-11-16,73.0,69.6,67.1,70.3,66.6,62.1,94,90,84,30.08,29.97,0,0,0,0.42
2013-11-17,84.1,74.8,66.8,72.0,68.0,64.1,92,80,60,30.03,29.93,0,0,0,0.00
2013-11-18,83.8,73.3,64.0,71.4,66.5,60.9,93,80,63,29.97,29.86,0,0,0,0.00
2013-11-19,79.6,71.1,63.4,69.1,64.2,58.6,92,80,59,29.93,29.83,0,0,0,0.00
2013-11-20,83.6,70.4,61.0,71.1,65.0,57.9,92,84,61,30.05,29.91,0,0,0,0.02
2013-11-21,83.0,72.3,69.3,71.6,68.2,66.6,93,87,61,30.13,30.03,0,0,0,0.13
2013-11-22,81.1,73.0,64.8,69.9,66.3,59.9,93,80,63,30.14,30.04,0,0,0,0.00
2013-11-23,82.2,69.2,58.3,66.8,61.1,54.8,92,77,49,30.06,29.95,0,0,0,0.00
2013-11-24,69.6,63.2,56.7,62.3,56.7,50.3,92,80,67,30.18,29.97,0,0,0,0.00
2013-11-25,73.9,65.6,55.9,61.5,55.9,50.5,85,72,54,30.18,30.02,0,0,0,0.00
2013-11-26,81.2,73.7,66.6,71.1,67.8,61.5,93,82,67,30.01,29.70,0,0,0,0.14
2013-11-27,73.0,60.8,41.6,69.6,54.7,35.9,92,81,63,30.17,29.67,0,0,0,0.30
2013-11-28,64.0,49.4,34.0,48.9,41.0,30.0,86,74,54,30.29,30.16,0,0,0,0.00
2013-11-29,72.0,58.4,48.8,56.8,51.0,45.7,92,78,54,30.30,30.21,0,0,0,0.00
2013-11-30,77.4,63.1,52.0,62.2,56.2,48.4,93,79,58,30.26,30.12,0,0,0,0.00
2013-12-1,73.9,63.4,58.1,64.3,58.8,54.1,94,85,67,30.14,29.90,0,0,0,0.00
2013-12-2,70.3,63.0,57.6,60.9,56.2,51.8,93,79,56,29.92,29.78,0,0,0,0.00
2013-12-3,79.0,65.6,52.0,62.6,57.0,48.6,92,76,52,29.93,29.83,0,0,0,0.00
2013-12-4,82.4,68.7,58.0,68.1,61.8,55.1,93,80,55,30.03,29.91,0,0,0,0.00
2013-12-5,82.0,70.2,59.2,68.1,62.3,56.3,94,78,54,30.12,30.02,0,0,0,0.01
2013-12-6,84.7,72.3,61.0,70.8,64.7,58.0,93,78,53,30.12,30.02,0,0,0,0.00
2013-12-7,83.2,69.6,59.8,69.1,60.9,56.9,93,76,48,30.18,30.08,0,0,0,0.00
2013-12-8,83.0,71.0,59.6,70.2,63.8,57.3,94,80,52,30.17,30.04,0,0,0,0.00
2013-12-9,82.4,71.5,61.6,70.4,64.3,57.9,92,79,57,30.13,30.02,0,0,0,0.00
2013-12-10,83.8,71.5,57.5,70.1,62.4,54.6,94,75,38,30.11,30.02,0,0,0,0.01
2013-12-11,81.2,70.1,58.1,67.3,61.9,53.6,89,76,55,30.19,30.09,0,0,0,0.00
2013-12-12,70.9,60.3,42.1,60.7,46.8,27.7,92,65,24,30.27,30.13,0,0,0,0.00
2013-12-13,75.3,59.8,41.8,56.1,49.4,32.5,90,70,46,30.23,30.04,0,0,0,0.00
2013-12-14,82.4,71.8,60.2,68.9,64.7,54.7,89,79,60,30.06,29.87,0,0,0,0.00
2013-12-15,72.5,66.8,54.7,69.7,61.2,50.9,92,83,67,30.07,29.83,0,0,0,0.81
2013-12-16,65.6,53.7,40.1,52.2,44.1,35.0,88,72,44,30.18,30.06,0,0,0,0.00
2013-12-17,71.1,52.7,37.6,53.2,43.9,33.1,91,74,47,30.20,30.09,0,0,0,0.00
2013-12-18,70.6,51.5,37.9,47.3,40.4,34.7,91,70,35,30.24,30.15,0,0,0,0.01
2013-12-19,75.1,56.4,36.9,56.7,46.7,34.0,92,73,35,30.23,30.11,0,0,0,0.01
2013-12-20,81.1,66.3,49.8,63.9,57.8,46.7,94,75,54,30.15,30.04,0,0,0,0.00
2013-12-21,84.0,73.6,66.4,69.1,65.7,61.1,92,77,56,30.08,29.96,0,0,0,0.00
2013-12-22,84.7,74.8,67.6,71.1,66.9,62.3,93,78,58,30.08,30.00,0,0,0,0.01
2013-12-23,85.5,74.5,65.5,72.5,67.7,62.2,92,80,56,30.11,30.02,0,0,0,0.01
2013-12-24,72.3,61.1,39.9,69.8,47.0,27.3,92,64,26,30.21,30.04,0,0,0,0.00
2013-12-25,76.0,59.3,39.9,57.3,48.0,30.2,86,68,49,30.20,30.08,0,0,0,0.00
2013-12-26,76.1,64.3,57.2,61.4,56.9,53.4,92,78,53,30.16,30.03,0,0,0,0.00
2013-12-27,67.8,63.8,58.1,64.0,59.8,54.8,91,87,80,30.20,30.10,0,0,0,0.03
2013-12-28,77.9,70.3,63.5,69.9,65.3,60.5,93,85,67,30.16,29.92,0,0,0,0.08
2013-12-29,76.7,70.4,58.7,71.3,67.0,56.4,92,89,78,29.96,29.82,0,0,0,0.51
2013-12-30,64.5,60.0,56.3,59.2,56.7,52.8,94,89,80,30.15,29.95,0,0,0,0.00
2013-12-31,66.9,60.8,56.0,53.4,50.5,46.8,88,70,49,30.25,30.11,0,0,0,0.00
2014-1-1,63.5,60.4,57.0,61.3,57.2,49.3,94,89,69,30.20,29.97,0,0,0,0.18
2014-1-2,82.2,68.6,55.6,70.6,63.0,-99.9,95,87,61,30.01,29.77,0,0,0,0.66